Starlink 11099

operational
NORAD ID: 59716 Int'l Des: 2024-088 Owner: SPXS Country: US Constellation: starlink
LEOCIRCULAR

Über Starlink 11099

Beschreibung wird geladen...

Live-Position

3D-Globus wird geladen...

Nächste Überflüge

Höhenverlauf

Altitude vs Time

uPlot chart will show altitude changes over time

Zweizeiliger Elementsatz

1 59716U 24088J 25350.35259384 .00013262 00000-0 11440-3 0 9991
2 59716 53.1582 17.0600 0001100 105.6560 254.4579 15.69655262 93187
Epoch: 16. Dez. 2025 • Age: 16 hours

Aktueller Status

Höhe 363.3 km
Geschwindigkeit 7.69 km/s
Subsatellitenpunkt -12.94°S, 109.08°E
Startdatum 10. Mai 2024
Alter 1.6 years
Typ internet

Technische Details

Klassifizierung Payload
Masse 960.00 kg
Trockenmasse 910.00 kg
Gesamtmasse 960.00 kg
Länge 0.30 m
Durchmesser 4.10 m
Spannweite 29.00 m
Form Box + pan
Hersteller SPXS
Bus-Typ Starlink V2MD
Phasenstatus In Orbit
Besitzer/Staat SPXS/US

Große Konstellationen

Loading constellations...